Weather History for NZAA - June, 2013

Change the Weather History Date:

Tuesday, June 25, 2013

  Actual Average Record
Temperature  
Mean Temperature 54 °F -  
Max Temperature 57 °F 57 °F 62 °F (1998)
Min Temperature 50 °F 46 °F 37 °F (1999)
Degree Days  
Heating Degree Days 12    
Growing Degree Days 4 (Base 50)    
Moisture  
Dew Point 50 °F    
Average Humidity 91    
Maximum Humidity 100    
Minimum Humidity 82    
Precipitation  
Precipitation 0.00 in - - ()
Sea Level Pressure  
Sea Level Pressure 30.18 in    
Wind  
Wind Speed 9 mph ()    
Max Wind Speed 20 mph    
Max Gust Speed -    
Visibility 6.1 miles    
Events Rain    
Averages and records for this station are not official NWS values.
T = Trace of Precipitation, MM = Missing Value Source: Averaged Metar Reports

Daily Weather History Graph

Daily Weather History Graph

Search for Another Location

Airport or City:

Trip Planner

Search our weather history database for the weather conditions in past years. The results will help you decide how hot, cold, wet, or windy it might be!

Date:

Astronomy

Jun. 25, 2013 Rise Set
Actual Time 7:34 AM NZST 5:12 PM NZST
Civil Twilight 7:05 AM NZST 5:41 PM NZST
Nautical Twilight 6:33 AM NZST 6:13 PM NZST
Astronomical Twilight 6:01 AM NZST 6:45 PM NZST
Moon 7:23 PM NZST (6/25) 8:36 AM NZST (6/25)
Length of Visible Light 10h 35m
Length of Day
9h 37m
Waning Gibbous, 96% of the Moon is Illuminated
Jun 25
Waning Gibbous
Jun 30
Last Quarter
Jul 8
New
Jul 16
First Quarter
Jul 23
Full

Hourly Weather History & Observations

Time (NZST) Temp. Dew Point Humidity Pressure Visibility Wind Dir Wind Speed Gust Speed Precip Events Conditions
12:00 AM 53.6 °F 51.8 °F 94% 30.18 in 6.2 mi SW 13.8 mph - N/A   Mostly Cloudy
1:00 AM 53.6 °F 51.8 °F 94% 30.18 in 6.2 mi SSW 10.4 mph - N/A   Mostly Cloudy
2:00 AM 53.6 °F 50.0 °F 88% 30.18 in 6.2 mi SW 19.6 mph - N/A   Mostly Cloudy
3:00 AM 51.8 °F 50.0 °F 94% 30.18 in 6.2 mi SW 8.1 mph - N/A   Mostly Cloudy
4:00 AM 50.0 °F 48.2 °F 94% 30.15 in 6.2 mi West 8.1 mph - N/A   Scattered Clouds
5:00 AM 51.8 °F 50.0 °F 94% 30.15 in 6.2 mi WNW 1.2 mph - N/A   Scattered Clouds
6:00 AM 51.8 °F 48.2 °F 88% 30.15 in 6.2 mi SSW 5.8 mph - N/A   Scattered Clouds
7:00 AM 51.8 °F 48.2 °F 88% 30.15 in 6.2 mi SW 6.9 mph - N/A   Mostly Cloudy
8:00 AM 50.0 °F 48.2 °F 94% 30.18 in 6.2 mi WSW 6.9 mph - N/A   Scattered Clouds
9:00 AM 53.6 °F 48.2 °F 82% 30.18 in 6.2 mi WSW 9.2 mph - N/A   Mostly Cloudy
10:00 AM 53.6 °F 50.0 °F 88% 30.21 in 6.2 mi WSW 12.7 mph - N/A   Mostly Cloudy
11:00 AM 57.2 °F 51.8 °F 82% 30.21 in 6.2 mi West 9.2 mph - N/A   Mostly Cloudy
12:00 PM 55.4 °F 50.0 °F 82% 30.21 in 6.2 mi SW 2.3 mph - N/A   Scattered Clouds
12:30 PM 53.6 °F 51.8 °F 94% 30.21 in 6.2 mi WSW 16.1 mph - N/A Rain Rain Showers
1:00 PM 53.6 °F 51.8 °F 94% 30.18 in 6.2 mi WSW 13.8 mph - N/A   Mostly Cloudy
2:00 PM 55.4 °F 50.0 °F 82% 30.18 in 6.2 mi SW 9.2 mph - N/A   Mostly Cloudy
3:00 PM 57.2 °F 51.8 °F 82% 30.18 in 6.2 mi WSW 13.8 mph - N/A   Mostly Cloudy
4:00 PM 55.4 °F 50.0 °F 82% 30.18 in 6.2 mi West 8.1 mph - N/A   Mostly Cloudy
5:00 PM 53.6 °F 50.0 °F 88% 30.18 in 6.2 mi West 11.5 mph - N/A   Mostly Cloudy
6:00 PM 51.8 °F 50.0 °F 94% 30.18 in 6.2 mi West 10.4 mph - N/A   Scattered Clouds
7:00 PM 51.8 °F 50.0 °F 94% 30.18 in 6.2 mi WSW 6.9 mph - N/A   Mostly Cloudy
8:00 PM 50.0 °F 50.0 °F 100% 30.18 in 6.2 mi West 3.5 mph - N/A   Mostly Cloudy
9:00 PM 51.8 °F 51.8 °F 100% 30.21 in 3.7 mi SW 5.8 mph - N/A Rain Light Rain
10:00 PM 51.8 °F 51.8 °F 100% 30.21 in 5.0 mi WSW 10.4 mph - N/A Rain Light Rain
11:00 PM 50.0 °F 50.0 °F 100% 30.21 in 6.2 mi WSW 3.5 mph - N/A   Scattered Clouds